QPF
0.05 0.05 0.05 0.05 0.03 0.03 0.03 0.04 0.03 0.03 0.03 0.02 0.01 0.02 0.02 0.01 0.02 0.02 0.04 0.03 0.03 0.02 0.01 0.02 0.02 0.02 0.02 0.03 0.04 0.03 0.02 0.02 0.01 0.01 0.01 0.01 0.01 0.01 0.01 0.01 0.01 0.01 0.01
0.06 0.06 0.06 0.06 0.04 0.03 0.03 0.04 0.04 0.05 0.03 0.03 0.03 0.01 0.01 0.02 0.03 0.02 0.04 0.04 0.02 0.01 0.01 0.02 0.02 0.03 0.02 0.04 0.04 0.03 0.02 0.02 0.02 0.02 0.01 0.02 0.01 0.01 0.01 0.01 0.02 0.02 0.02
0.05 0.06 0.08 0.06 0.05 0.03 0.03 0.04 0.03 0.05 0.05 0.04 0.04 0.03 0.02 0.03 0.04 0.04 0.04 0.03 0.03 0.02 0.01 0.01 0.01 0.02 0.02 0.03 0.03 0.03 0.03 0.02 0.02 0.02 0.01 0.01 0.01 0.01 0.01 0.02 0.02 0.02 0.01
0.03 0.07 0.07 0.06 0.05 0.03 0.03 0.05 0.06 0.07 0.07 0.05 0.06 0.07 0.04 0.06 0.08 0.08 0.05 0.04 0.04 0.02 0.02 0.02 0.02 0.01 0.02 0.04 0.03 0.03 0.04 0.02 0.02 0.03 0.03 0.02 0.02 0.02 0.02 0.02 0.01 0.01 0.01
0.03 0.06 0.07 0.07 0.05 0.07 0.07 0.06 0.10 0.09 0.10 0.08 0.06 0.08 0.06 0.07 0.09 0.06 0.04 0.03 0.03 0.03 0.03 0.03 0.02 0.02 0.02 0.03 0.05 0.05 0.05 0.05 0.05 0.04 0.04 0.03 0.02 0.02 0.03 0.03 0.02 0.02 0.01
0.03 0.05 0.07 0.06 0.05 0.08 0.09 0.09 0.11 0.10 0.10 0.12 0.09 0.10 0.08 0.06 0.05 0.06 0.04 0.02 0.03 0.04 0.05 0.08 0.09 0.07 0.05 0.05 0.06 0.06 0.06 0.05 0.05 0.05 0.05 0.04 0.03 0.03 0.03 0.03 0.03 0.02 0.02
0.03 0.07 0.06 0.09 0.05 0.09 0.09 0.09 0.12 0.13 0.14 0.15 0.14 0.13 0.09 0.07 0.08 0.08 0.05 0.03 0.04 0.05 0.04 0.10 0.17 0.13 0.08 0.05 0.05 0.04 0.05 0.06 0.06 0.05 0.05 0.05 0.04 0.04 0.03 0.03 0.03 0.03 0.03
0.05 0.06 0.10 0.09 0.08 0.09 0.09 0.10 0.11 0.11 0.11 0.12 0.14 0.15 0.12 0.10 0.09 0.06 0.06 0.06 0.04 0.04 0.04 0.05 0.07 0.08 0.08 0.09 0.09 0.07 0.06 0.06 0.08 0.08 0.07 0.08 0.08 0.06 0.05 0.04 0.03 0.03 0.03
0.05 0.07 0.10 0.11 0.10 0.08 0.11 0.11 0.09 0.10 0.10 0.11 0.12 0.13 0.14 0.15 0.11 0.07 0.07 0.05 0.05 0.05 0.05 0.07 0.08 0.08 0.08 0.10 0.10 0.08 0.06 0.06 0.08 0.10 0.11 0.09 0.08 0.08 0.07 0.07 0.06 0.05 0.04
0.04 0.05 0.07 0.10 0.10 0.10 0.12 0.08 0.10 0.12 0.12 0.12 0.12 0.13 0.14 0.15 0.15 0.10 0.07 0.06 0.07 0.07 0.06 0.08 0.10 0.11 0.11 0.13 0.14 0.10 0.07 0.06 0.07 0.09 0.11 0.12 0.11 0.10 0.09 0.09 0.09 0.09 0.08
0.06 0.05 0.06 0.08 0.08 0.09 0.09 0.09 0.12 0.12 0.13 0.13 0.12 0.13 0.15 0.16 0.16 0.14 0.11 0.09 0.07 0.07 0.07 0.09 0.09 0.09 0.10 0.13 0.13 0.11 0.10 0.09 0.06 0.06 0.06 0.08 0.09 0.09 0.09 0.09 0.09 0.10 0.11
0.08 0.05 0.06 0.08 0.08 0.08 0.08 0.07 0.09 0.11 0.12 0.14 0.12 0.12 0.13 0.13 0.14 0.16 0.14 0.12 0.09 0.08 0.07 0.07 0.08 0.07 0.08 0.08 0.08 0.11 0.09 0.06 0.04 0.03 0.03 0.04 0.05 0.06 0.08 0.10 0.10 0.11 0.12
0.07 0.06 0.06 0.06 0.06 0.06 0.07 0.09 0.09 0.09 0.11 0.12 0.11 0.09 0.09 0.09 0.11 0.14 0.15 0.13 0.12 0.10 0.08 0.06 0.05 0.06 0.05 0.05 0.07 0.08 0.05 0.04 0.04 0.03 0.03 0.03 0.03 0.03 0.05 0.07 0.07 0.08 0.11
0.05 0.05 0.05 0.04 0.04 0.04 0.05 0.07 0.07 0.08 0.11 0.11 0.08 0.09 0.08 0.08 0.08 0.08 0.09 0.12 0.13 0.12 0.10 0.08 0.07 0.06 0.06 0.06 0.07 0.07 0.05 0.05 0.04 0.03 0.03 0.03 0.03 0.03 0.03 0.04 0.05 0.05 0.06
0.04 0.04 0.04 0.05 0.04 0.04 0.03 0.05 0.05 0.07 0.11 0.11 0.10 0.10 0.09 0.09 0.08 0.07 0.08 0.11 0.14 0.14 0.13 0.10 0.08 0.08 0.10 0.13 0.13 0.07 0.06 0.05 0.03 0.03 0.03 0.03 0.03 0.03 0.03 0.04 0.04 0.04 0.04
0.04 0.04 0.04 0.04 0.04 0.04 0.04 0.04 0.04 0.05 0.07 0.08 0.10 0.12 0.10 0.08 0.08 0.07 0.08 0.09 0.11 0.13 0.12 0.11 0.09 0.07 0.10 0.12 0.12 0.07 0.05 0.04 0.03 0.02 0.02 0.02 0.02 0.02 0.03 0.03 0.04 0.05 0.05
0.06 0.04 0.04 0.04 0.04 0.04 0.04 0.05 0.04 0.04 0.04 0.05 0.06 0.09 0.10 0.11 0.09 0.08 0.09 0.13 0.15 0.16 0.15 0.13 0.12 0.10 0.11 0.12 0.10 0.07 0.07 0.06 0.03 0.02 0.01 0.01 0.01 0.01 0.02 0.02 0.03 0.03 0.03
0.05 0.04 0.04 0.03 0.04 0.05 0.06 0.06 0.05 0.05 0.05 0.05 0.06 0.09 0.11 0.13 0.13 0.10 0.11 0.13 0.14 0.14 0.15 0.14 0.13 0.11 0.10 0.07 0.06 0.06 0.06 0.04 0.05 0.03 0.02 0.02 0.01 0.01 0.02 0.02 0.02 0.02 0.02
0.05 0.03 0.03 0.03 0.05 0.06 0.07 0.07 0.06 0.05 0.05 0.05 0.06 0.06 0.07 0.09 0.09 0.10 0.10 0.11 0.10 0.11 0.12 0.11 0.09 0.08 0.07 0.06 0.06 0.06 0.06 0.06 0.04 0.06 0.04 0.03 0.03 0.02 0.01 0.01 0.01 0.01 0.02
0.06 0.05 0.04 0.04 0.05 0.06 0.06 0.07 0.07 0.06 0.07 0.07 0.06 0.05 0.05 0.05 0.05 0.07 0.08 0.10 0.10 0.11 0.11 0.10 0.10 0.09 0.08 0.08 0.08 0.07 0.06 0.07 0.05 0.05 0.05 0.04 0.03 0.03 0.02 0.02 0.02 0.01 0.02
0.06 0.08 0.07 0.05 0.05 0.06 0.05 0.06 0.05 0.06 0.07 0.07 0.06 0.05 0.05 0.06 0.06 0.06 0.06 0.07 0.06 0.08 0.09 0.11 0.12 0.13 0.12 0.11 0.09 0.07 0.07 0.07 0.07 0.05 0.04 0.04 0.04 0.04 0.04 0.03 0.03 0.02 0.01
0.06 0.07 0.06 0.06 0.06 0.05 0.03 0.03 0.04 0.05 0.07 0.07 0.07 0.06 0.06 0.07 0.07 0.06 0.05 0.05 0.06 0.08 0.10 0.10 0.11 0.13 0.14 0.14 0.11 0.09 0.08 0.09 0.07 0.06 0.06 0.05 0.03 0.03 0.03 0.02 0.02 0.01 0.01
0.05 0.05 0.05 0.05 0.05 0.04 0.03 0.02 0.03 0.04 0.06 0.07 0.06 0.05 0.06 0.05 0.06 0.06 0.06 0.07 0.09 0.13 0.14 0.15 0.14 0.12 0.11 0.10 0.09 0.08 0.09 0.09 0.07 0.05 0.05 0.04 0.03 0.02 0.02 0.01 0.01 0.01 0.01
0.04 0.04 0.04 0.04 0.04 0.03 0.04 0.03 0.03 0.04 0.06 0.06 0.04 0.03 0.03 0.03 0.04 0.05 0.07 0.08 0.10 0.12 0.12 0.10 0.08 0.06 0.04 0.04 0.04 0.04 0.05 0.06 0.05 0.03 0.03 0.02 0.02 0.02 0.01 0.01 0.01 0.01 0.00
0.03 0.03 0.03 0.03 0.03 0.02 0.03 0.04 0.04 0.05 0.05 0.05 0.04 0.03 0.03 0.03 0.03 0.03 0.03 0.04 0.05 0.05 0.05 0.04 0.03 0.03 0.02 0.02 0.02 0.03 0.04 0.04 0.04 0.03 0.02 0.02 0.02 0.03 0.03 0.02 0.01 0.01 0.01
0.03 0.03 0.03 0.02 0.02 0.02 0.02 0.02 0.03 0.03 0.04 0.05 0.05 0.05 0.04 0.03 0.02 0.02 0.02 0.02 0.02 0.02 0.03 0.02 0.02 0.02 0.02 0.02 0.02 0.02 0.03 0.03 0.03 0.03 0.03 0.02 0.02 0.02 0.02 0.01 0.01 0.01 0.01
MSLP
1016.16 1016.23 1016.24 1016.21 1016.17 1016.14 1016.14 1016.16 1016.18 1016.17 1016.12 1016.02 1015.89 1015.75 1015.65 1015.63 1015.72 1015.94 1016.28 1016.71 1017.18 1017.65 1018.07 1018.42 1018.69 1018.88 1019.02 1019.13 1019.24 1019.35 1019.49 1019.64 1019.80 1019.97 1020.13 1020.28 1020.43 1020.57 1020.69 1020.82 1020.93 1021.05 1021.16
1016.03 1016.10 1016.11 1016.09 1016.05 1016.03 1016.02 1016.03 1016.05 1016.06 1016.04 1015.99 1015.90 1015.79 1015.70 1015.66 1015.70 1015.84 1016.08 1016.40 1016.79 1017.21 1017.62 1017.99 1018.32 1018.58 1018.80 1018.97 1019.11 1019.24 1019.36 1019.49 1019.64 1019.79 1019.96 1020.13 1020.31 1020.48 1020.63 1020.77 1020.90 1021.01 1021.11
1015.92 1015.98 1015.99 1015.98 1015.96 1015.94 1015.93 1015.95 1015.98 1016.02 1016.03 1016.02 1015.98 1015.90 1015.81 1015.74 1015.70 1015.73 1015.84 1016.03 1016.30 1016.63 1016.99 1017.37 1017.73 1018.06 1018.35 1018.58 1018.78 1018.94 1019.07 1019.20 1019.34 1019.50 1019.68 1019.88 1020.09 1020.29 1020.48 1020.65 1020.78 1020.89 1020.99
1015.78 1015.84 1015.86 1015.87 1015.86 1015.86 1015.87 1015.90 1015.95 1016.01 1016.06 1016.09 1016.08 1016.03 1015.94 1015.82 1015.70 1015.61 1015.57 1015.60 1015.73 1015.93 1016.22 1016.56 1016.93 1017.30 1017.65 1017.95 1018.20 1018.40 1018.57 1018.72 1018.87 1019.04 1019.24 1019.46 1019.70 1019.95 1020.17 1020.36 1020.52 1020.63 1020.73
1015.64 1015.68 1015.72 1015.75 1015.78 1015.80 1015.83 1015.87 1015.93 1016.01 1016.09 1016.14 1016.16 1016.13 1016.04 1015.88 1015.69 1015.48 1015.29 1015.16 1015.12 1015.19 1015.37 1015.64 1015.99 1016.38 1016.76 1017.11 1017.40 1017.65 1017.84 1018.01 1018.18 1018.37 1018.60 1018.85 1019.12 1019.40 1019.66 1019.88 1020.05 1020.18 1020.28
1015.50 1015.54 1015.60 1015.66 1015.71 1015.76 1015.80 1015.85 1015.92 1016.00 1016.09 1016.16 1016.20 1016.18 1016.09 1015.91 1015.65 1015.35 1015.03 1014.76 1014.57 1014.50 1014.56 1014.75 1015.05 1015.41 1015.80 1016.17 1016.49 1016.76 1016.98 1017.17 1017.35 1017.56 1017.79 1018.07 1018.36 1018.66 1018.94 1019.18 1019.37 1019.51 1019.62
1015.41 1015.45 1015.53 1015.61 1015.69 1015.76 1015.81 1015.86 1015.91 1015.98 1016.06 1016.14 1016.20 1016.19 1016.10 1015.92 1015.63 1015.26 1014.87 1014.48 1014.18 1013.98 1013.94 1014.03 1014.26 1014.58 1014.94 1015.30 1015.63 1015.90 1016.12 1016.31 1016.49 1016.69 1016.92 1017.20 1017.50 1017.81 1018.09 1018.34 1018.54 1018.68 1018.80
1015.42 1015.47 1015.56 1015.67 1015.76 1015.84 1015.88 1015.91 1015.94 1015.99 1016.05 1016.12 1016.17 1016.18 1016.11 1015.93 1015.65 1015.27 1014.83 1014.40 1014.02 1013.75 1013.62 1013.64 1013.80 1014.07 1014.38 1014.71 1015.00 1015.25 1015.44 1015.60 1015.75 1015.92 1016.13 1016.38 1016.66 1016.95 1017.22 1017.46 1017.64 1017.78 1017.89
1015.57 1015.63 1015.74 1015.85 1015.96 1016.03 1016.06 1016.05 1016.05 1016.05 1016.07 1016.12 1016.17 1016.18 1016.14 1015.99 1015.74 1015.39 1014.98 1014.54 1014.16 1013.86 1013.70 1013.68 1013.79 1014.00 1014.27 1014.54 1014.79 1014.98 1015.12 1015.22 1015.32 1015.43 1015.58 1015.77 1016.00 1016.24 1016.47 1016.68 1016.83 1016.95 1017.03
1015.89 1015.95 1016.06 1016.19 1016.28 1016.33 1016.33 1016.30 1016.24 1016.20 1016.18 1016.20 1016.23 1016.25 1016.22 1016.12 1015.92 1015.63 1015.28 1014.91 1014.57 1014.32 1014.17 1014.15 1014.26 1014.44 1014.67 1014.89 1015.07 1015.19 1015.26 1015.28 1015.29 1015.32 1015.39 1015.50 1015.65 1015.83 1015.99 1016.14 1016.24 1016.31 1016.35
1016.34 1016.41 1016.52 1016.63 1016.71 1016.74 1016.71 1016.63 1016.54 1016.45 1016.38 1016.36 1016.37 1016.38 1016.37 1016.31 1016.17 1015.97 1015.71 1015.44 1015.20 1015.03 1014.96 1015.00 1015.13 1015.32 1015.53 1015.71 1015.84 1015.89 1015.87 1015.81 1015.72 1015.65 1015.62 1015.63 1015.69 1015.78 1015.87 1015.94 1015.98 1015.99 1015.97
1016.86 1016.93 1017.03 1017.12 1017.18 1017.19 1017.14 1017.04 1016.91 1016.78 1016.68 1016.62 1016.59 1016.58 1016.57 1016.53 1016.45 1016.33 1016.18 1016.03 1015.92 1015.88 1015.93 1016.06 1016.26 1016.50 1016.72 1016.89 1016.98 1016.97 1016.88 1016.73 1016.55 1016.38 1016.24 1016.16 1016.12 1016.12 1016.13 1016.13 1016.11 1016.04 1015.95
1017.40 1017.45 1017.53 1017.61 1017.65 1017.65 1017.58 1017.47 1017.33 1017.18 1017.05 1016.95 1016.88 1016.84 1016.81 1016.78 1016.73 1016.67 1016.62 1016.60 1016.63 1016.73 1016.92 1017.17 1017.48 1017.79 1018.05 1018.23 1018.31 1018.26 1018.12 1017.89 1017.64 1017.38 1017.17 1017.00 1016.89 1016.81 1016.76 1016.69 1016.60 1016.47 1016.30
1017.86 1017.91 1017.98 1018.03 1018.07 1018.06 1018.01 1017.90 1017.77 1017.61 1017.47 1017.33 1017.23 1017.14 1017.08 1017.02 1016.98 1016.96 1016.98 1017.06 1017.22 1017.46 1017.79 1018.18 1018.60 1019.00 1019.33 1019.55 1019.63 1019.57 1019.40 1019.14 1018.83 1018.53 1018.26 1018.04 1017.88 1017.76 1017.65 1017.55 1017.41 1017.23 1017.00
1018.23 1018.27 1018.32 1018.38 1018.41 1018.42 1018.39 1018.32 1018.21 1018.07 1017.92 1017.77 1017.62 1017.48 1017.36 1017.27 1017.21 1017.20 1017.26 1017.41 1017.67 1018.03 1018.48 1019.00 1019.52 1020.01 1020.40 1020.66 1020.77 1020.73 1020.56 1020.29 1019.97 1019.66 1019.37 1019.14 1018.96 1018.83 1018.72 1018.59 1018.44 1018.23 1017.95
1018.51 1018.54 1018.59 1018.65 1018.70 1018.74 1018.75 1018.72 1018.65 1018.55 1018.41 1018.24 1018.06 1017.87 1017.70 1017.55 1017.44 1017.41 1017.49 1017.68 1018.00 1018.44 1018.98 1019.57 1020.18 1020.73 1021.18 1021.49 1021.63 1021.62 1021.47 1021.22 1020.93 1020.64 1020.38 1020.18 1020.03 1019.92 1019.82 1019.72 1019.57 1019.35 1019.06
1018.73 1018.77 1018.82 1018.89 1018.97 1019.05 1019.11 1019.14 1019.12 1019.05 1018.93 1018.77 1018.56 1018.34 1018.11 1017.90 1017.75 1017.69 1017.74 1017.93 1018.27 1018.74 1019.32 1019.96 1020.60 1021.18 1021.66 1021.99 1022.16 1022.18 1022.07 1021.87 1021.63 1021.40 1021.21 1021.06 1020.97 1020.92 1020.87 1020.81 1020.69 1020.50 1020.22
1018.95 1019.01 1019.08 1019.18 1019.29 1019.40 1019.51 1019.59 1019.62 1019.59 1019.50 1019.34 1019.13 1018.88 1018.61 1018.36 1018.17 1018.07 1018.09 1018.26 1018.58 1019.04 1019.61 1020.23 1020.86 1021.43 1021.90 1022.23 1022.41 1022.45 1022.38 1022.25 1022.08 1021.93 1021.82 1021.76 1021.76 1021.77 1021.80 1021.78 1021.71 1021.56 1021.31
1019.23 1019.32 1019.42 1019.54 1019.68 1019.83 1019.97 1020.09 1020.16 1020.17 1020.10 1019.97 1019.76 1019.50 1019.22 1018.95 1018.73 1018.60 1018.59 1018.72 1019.00 1019.41 1019.92 1020.49 1021.05 1021.57 1021.99 1022.29 1022.46 1022.51 1022.48 1022.40 1022.31 1022.25 1022.24 1022.28 1022.36 1022.46 1022.55 1022.60 1022.58 1022.47 1022.27
1019.59 1019.71 1019.84 1019.98 1020.14 1020.31 1020.48 1020.62 1020.71 1020.75 1020.71 1020.60 1020.42 1020.18 1019.91 1019.65 1019.43 1019.28 1019.25 1019.34 1019.56 1019.89 1020.31 1020.78 1021.25 1021.67 1022.01 1022.25 1022.39 1022.44 1022.43 1022.40 1022.39 1022.42 1022.50 1022.63 1022.79 1022.97 1023.12 1023.22 1023.25 1023.19 1023.03
1020.01 1020.17 1020.32 1020.48 1020.66 1020.83 1021.00 1021.14 1021.25 1021.30 1021.29 1021.21 1021.06 1020.86 1020.63 1020.40 1020.20 1020.06 1020.01 1020.07 1020.22 1020.47 1020.79 1021.14 1021.48 1021.79 1022.02 1022.18 1022.27 1022.31 1022.32 1022.33 1022.38 1022.48 1022.64 1022.84 1023.08 1023.31 1023.52 1023.66 1023.72 1023.69 1023.57
1020.45 1020.64 1020.81 1020.99 1021.16 1021.32 1021.48 1021.61 1021.72 1021.78 1021.78 1021.74 1021.64 1021.50 1021.32 1021.15 1020.99 1020.87 1020.82 1020.84 1020.94 1021.10 1021.31 1021.53 1021.75 1021.93 1022.06 1022.14 1022.17 1022.18 1022.19 1022.24 1022.33 1022.48 1022.70 1022.96 1023.24 1023.51 1023.74 1023.91 1023.99 1023.99 1023.90
1020.84 1021.05 1021.25 1021.42 1021.58 1021.73 1021.87 1021.98 1022.08 1022.14 1022.17 1022.16 1022.11 1022.04 1021.93 1021.82 1021.71 1021.63 1021.58 1021.58 1021.62 1021.71 1021.81 1021.92 1022.02 1022.09 1022.12 1022.13 1022.11 1022.09 1022.10 1022.16 1022.28 1022.46 1022.71 1023.00 1023.30 1023.59 1023.83 1024.00 1024.09 1024.10 1024.03
1021.12 1021.36 1021.56 1021.73 1021.88 1022.01 1022.13 1022.23 1022.31 1022.38 1022.43 1022.46 1022.47 1022.45 1022.42 1022.37 1022.31 1022.26 1022.22 1022.21 1022.21 1022.23 1022.25 1022.27 1022.27 1022.25 1022.21 1022.15 1022.10 1022.06 1022.06 1022.12 1022.25 1022.45 1022.70 1022.99 1023.29 1023.57 1023.80 1023.96 1024.04 1024.06 1024.00
1021.27 1021.51 1021.72 1021.89 1022.03 1022.15 1022.25 1022.34 1022.43 1022.51 1022.59 1022.66 1022.71 1022.75 1022.77 1022.78 1022.77 1022.74 1022.71 1022.68 1022.65 1022.61 1022.58 1022.53 1022.47 1022.39 1022.31 1022.22 1022.14 1022.09 1022.08 1022.14 1022.26 1022.45 1022.69 1022.95 1023.23 1023.48 1023.68 1023.83 1023.90 1023.91 1023.87
1021.27 1021.53 1021.74 1021.92 1022.06 1022.17 1022.28 1022.37 1022.47 1022.57 1022.67 1022.78 1022.88 1022.96 1023.02 1023.06 1023.08 1023.06 1023.03 1022.99 1022.93 1022.87 1022.79 1022.71 1022.62 1022.52 1022.42 1022.32 1022.23 1022.18 1022.17 1022.22 1022.32 1022.48 1022.68 1022.91 1023.14 1023.35 1023.53 1023.65 1023.72 1023.73 1023.69
Thickness
5764 5764 5763 5763 5762 5762 5762 5761 5761 5762 5762 5762 5763 5763 5763 5762 5760 5757 5752 5749 5748 5746 5744 5742 5741 5739 5737 5736 5734 5732 5731 5730 5728 5727 5726 5724 5723 5722 5721 5719 5718 5717 5715
5765 5764 5763 5764 5764 5764 5764 5763 5763 5763 5763 5763 5763 5763 5763 5761 5760 5757 5753 5751 5749 5747 5746 5744 5742 5740 5739 5737 5735 5734 5732 5731 5729 5728 5726 5725 5723 5722 5721 5720 5718 5717 5715
5767 5766 5765 5765 5765 5765 5764 5763 5763 5763 5763 5763 5763 5763 5763 5762 5760 5758 5755 5753 5750 5748 5747 5746 5744 5742 5740 5738 5737 5735 5733 5732 5730 5728 5726 5725 5723 5722 5721 5719 5718 5716 5715
5768 5767 5766 5766 5766 5766 5765 5764 5763 5762 5762 5762 5761 5762 5763 5762 5760 5759 5757 5756 5754 5751 5749 5747 5745 5743 5742 5740 5738 5737 5735 5733 5731 5729 5727 5725 5723 5722 5720 5719 5717 5716 5714
5770 5768 5767 5766 5766 5766 5766 5765 5763 5761 5760 5760 5760 5761 5761 5761 5761 5760 5759 5758 5757 5755 5752 5749 5747 5745 5743 5741 5739 5738 5736 5733 5731 5729 5727 5726 5724 5722 5720 5718 5717 5715 5714
5770 5770 5768 5767 5767 5766 5764 5764 5762 5762 5761 5760 5760 5760 5760 5761 5762 5761 5761 5760 5759 5757 5755 5752 5748 5745 5743 5742 5740 5738 5736 5734 5732 5730 5728 5726 5724 5722 5720 5718 5716 5715 5713
5771 5770 5769 5767 5767 5766 5765 5764 5762 5760 5760 5760 5756 5753 5757 5761 5761 5761 5761 5761 5759 5758 5756 5754 5750 5747 5744 5742 5740 5739 5736 5734 5732 5730 5728 5726 5724 5722 5720 5718 5716 5714 5712
5771 5771 5768 5767 5768 5766 5764 5763 5761 5759 5759 5761 5755 5748 5745 5749 5756 5760 5760 5758 5758 5757 5755 5754 5751 5749 5747 5744 5741 5738 5736 5734 5731 5729 5727 5725 5723 5721 5719 5717 5715 5713 5712
5772 5770 5769 5767 5767 5766 5763 5763 5762 5759 5756 5758 5759 5751 5743 5739 5744 5751 5755 5755 5755 5754 5753 5751 5749 5747 5745 5743 5740 5737 5735 5733 5730 5728 5726 5723 5721 5720 5718 5716 5714 5713 5711
5772 5770 5768 5767 5766 5765 5764 5763 5763 5761 5758 5754 5756 5757 5754 5750 5740 5738 5745 5749 5750 5749 5748 5748 5746 5744 5741 5739 5736 5735 5733 5730 5728 5725 5723 5721 5719 5717 5715 5714 5712 5711 5709
5771 5769 5768 5766 5765 5764 5763 5762 5762 5760 5758 5755 5753 5753 5751 5750 5747 5738 5733 5738 5741 5744 5744 5743 5742 5739 5737 5734 5732 5731 5728 5726 5724 5722 5719 5717 5715 5714 5712 5711 5710 5708 5707
5769 5768 5767 5764 5763 5762 5762 5761 5760 5759 5758 5756 5754 5752 5749 5746 5743 5739 5733 5732 5732 5736 5739 5739 5737 5734 5732 5730 5728 5726 5724 5722 5719 5717 5714 5712 5710 5709 5707 5706 5704 5703 5702
5765 5764 5764 5762 5761 5760 5760 5760 5759 5757 5756 5754 5752 5750 5750 5748 5746 5741 5735 5731 5729 5731 5732 5732 5731 5729 5727 5725 5722 5721 5718 5716 5713 5711 5708 5706 5704 5702 5701 5699 5698 5697 5696
5763 5763 5762 5760 5759 5758 5758 5757 5756 5755 5754 5752 5751 5749 5748 5746 5745 5741 5736 5731 5725 5724 5724 5723 5725 5724 5722 5719 5717 5714 5711 5708 5706 5703 5701 5699 5697 5695 5693 5692 5690 5689 5688
5762 5760 5759 5758 5757 5756 5755 5754 5752 5751 5751 5750 5749 5747 5745 5744 5743 5741 5739 5735 5727 5718 5715 5718 5718 5718 5717 5713 5710 5707 5704 5701 5699 5696 5694 5692 5689 5687 5685 5684 5682 5681 5680
5758 5757 5756 5755 5753 5752 5751 5750 5749 5748 5747 5746 5746 5744 5743 5742 5740 5739 5737 5734 5731 5723 5715 5714 5713 5713 5711 5708 5704 5702 5698 5695 5692 5690 5687 5684 5682 5679 5678 5675 5673 5672 5671
5755 5754 5752 5751 5749 5748 5747 5746 5745 5744 5742 5741 5741 5740 5739 5739 5737 5736 5734 5731 5727 5722 5713 5710 5709 5707 5704 5702 5698 5695 5692 5688 5685 5682 5679 5677 5674 5671 5669 5666 5664 5663 5661
5753 5751 5750 5748 5746 5744 5743 5742 5740 5739 5738 5736 5735 5734 5734 5734 5732 5731 5729 5726 5723 5720 5713 5705 5702 5699 5697 5696 5694 5691 5687 5683 5678 5675 5672 5669 5666 5663 5660 5657 5655 5653 5651
5749 5748 5746 5744 5742 5741 5739 5737 5735 5734 5733 5731 5730 5728 5727 5727 5725 5725 5723 5722 5719 5716 5711 5703 5697 5694 5691 5689 5686 5684 5681 5677 5673 5668 5664 5660 5657 5654 5651 5648 5645 5643 5641
5745 5744 5742 5740 5738 5736 5734 5732 5731 5729 5728 5726 5725 5723 5721 5719 5718 5718 5717 5715 5712 5709 5704 5699 5693 5688 5684 5682 5678 5675 5671 5669 5666 5662 5657 5652 5648 5644 5641 5638 5636 5633 5631
5742 5739 5737 5735 5734 5731 5729 5727 5727 5725 5723 5720 5719 5717 5714 5712 5710 5710 5709 5706 5705 5701 5697 5692 5686 5682 5677 5673 5670 5669 5664 5661 5659 5656 5650 5646 5641 5637 5632 5629 5626 5623 5621
5736 5734 5732 5730 5727 5724 5722 5722 5721 5720 5717 5715 5713 5711 5709 5706 5704 5702 5699 5697 5696 5692 5688 5684 5679 5673 5669 5667 5665 5663 5658 5654 5649 5649 5644 5639 5635 5630 5625 5620 5617 5614 5612
5731 5728 5725 5722 5719 5716 5716 5715 5715 5714 5711 5709 5706 5704 5703 5700 5697 5694 5692 5689 5686 5683 5680 5676 5670 5666 5662 5660 5658 5655 5651 5647 5643 5641 5637 5631 5628 5622 5618 5613 5609 5606 5602
5725 5721 5719 5716 5713 5710 5709 5709 5708 5708 5705 5701 5699 5696 5693 5690 5688 5686 5684 5680 5676 5673 5671 5667 5663 5658 5655 5652 5650 5647 5644 5640 5636 5632 5629 5622 5619 5615 5610 5604 5601 5597 5593
5719 5716 5712 5709 5706 5703 5702 5702 5702 5701 5697 5694 5691 5687 5685 5681 5678 5677 5676 5671 5667 5663 5660 5657 5654 5651 5647 5644 5641 5638 5634 5630 5625 5621 5619 5614 5610 5605 5601 5596 5592 5588 5584
5714 5710 5706 5703 5700 5697 5696 5696 5695 5695 5691 5687 5683 5680 5676 5673 5670 5668 5666 5663 5658 5654 5652 5649 5645 5642 5639 5636 5632 5629 5625 5620 5616 5611 5608 5604 5600 5597 5591 5588 5584 5580 5575